Location: Unspecified
(41.5516°N, 88.1098°W)
Time: 09:10:00
(UTC-05:00)

Cosmos 1674 - Visible Passes

Search period start: 19 April 2015 00:00
Search period end: 29 April 2015 00:00
Orbit: 508 x 533 km, 82.5° (Epoch: 18 April)

Date Brightness Start Highest point End Pass type
(mag) Time Alt. Az. Time Alt. Az. Time Alt. Az.
19 Apr 6.5 05:33:29 10° E 05:34:05 10° E 05:34:55 10° ENE visible
27 Apr 4.1 05:17:30 10° SSE 05:21:05 41° E 05:24:45 10° NNE visible
28 Apr 4.4 05:04:03 10° SSE 05:07:30 35° E 05:11:04 10° NNE visible
